When you browse on this site, cookies collect data to enhance your experience and personalize the content and advertising you see.
Visit our Privacy Policy to learn more. By continuing to use the site, you agree to this use of cookies and data.
  • In Lithuania
  • List of Countries
  • For 7 days
  • Water Temperature
  • Weather Map
  • Weather Widgets
  • user-avatar
    Login

    Hourly Weather Rozogi

    Today, 12 November, Tuesday

    Time Temperature Precipitation Wind Pressure Humidity
    00:00 +1°C° 0 mm 3 mps 749 mmHg 90%
    01:00 +1°C° 0 mm 3 mps 749 mmHg 88%
    02:00 0°C° 0 mm 4 mps 749 mmHg 86%
    03:00 +1°C° 0 mm 4 mps 749 mmHg 83%
    04:00 +1°C° 0 mm 5 mps 748 mmHg 81%
    05:00 +2°C° 0 mm 5 mps 748 mmHg 81%
    06:00 +2°C° 0 mm 5 mps 748 mmHg 81%
    07:00 +3°C° 0 mm 6 mps 747 mmHg 81%
    08:00 +3°C° 0 mm 6 mps 747 mmHg 80%
    09:00 +4°C° 0 mm 6 mps 747 mmHg 79%
    10:00 +4°C° 0 mm 6 mps 747 mmHg 78%
    11:00 +6°C° 0 mm 5 mps 747 mmHg 76%
    12:00 +6°C° 0 mm 5 mps 747 mmHg 75%
    13:00 +7°C° 0 mm 5 mps 747 mmHg 73%
    14:00 +7°C° 0 mm 4 mps 746 mmHg 75%
    15:00 +6°C° 0 mm 4 mps 746 mmHg 78%
    16:00 +6°C° 0 mm 4 mps 746 mmHg 81%
    17:00 +6°C° 0 mm 4 mps 746 mmHg 82%
    18:00 +6°C° 0 mm 4 mps 746 mmHg 83%
    19:00 +6°C° 0 mm 4 mps 746 mmHg 84%
    20:00 +6°C° 0 mm 4 mps 745 mmHg 87%
    21:00 +7°C° 0 mm 4 mps 745 mmHg 90%
    22:00 +7°C° 0 mm 4 mps 745 mmHg 94%
    23:00 +7°C° 0.1 mm 4 mps 745 mmHg 93%

    Tomorrow, 13 November, Wednesday

    Time Temperature Precipitation Wind Pressure Humidity
    00:00 +8°C° 0.1 mm 3 mps 744 mmHg 92%
    01:00 +8°C° 0.1 mm 3 mps 744 mmHg 91%
    02:00 +8°C° 0.2 mm 3 mps 743 mmHg 91%
    03:00 +8°C° 0.2 mm 3 mps 743 mmHg 92%
    04:00 +8°C° 0.2 mm 2 mps 742 mmHg 92%
    05:00 +8°C° 0 mm 3 mps 742 mmHg 91%
    06:00 +8°C° 0 mm 3 mps 742 mmHg 90%
    07:00 +8°C° 0 mm 3 mps 742 mmHg 89%
    08:00 +9°C° 0 mm 3 mps 742 mmHg 86%
    09:00 +10°C° 0 mm 4 mps 741 mmHg 82%
    10:00 +10°C° 0 mm 4 mps 741 mmHg 79%
    11:00 +11°C° 0.2 mm 4 mps 741 mmHg 80%
    12:00 +11°C° 0.2 mm 4 mps 741 mmHg 81%
    13:00 +10°C° 0.2 mm 5 mps 740 mmHg 82%
    14:00 +10°C° 0.3 mm 5 mps 740 mmHg 84%
    15:00 +11°C° 0.3 mm 4 mps 740 mmHg 85%
    16:00 +12°C° 0.3 mm 4 mps 740 mmHg 86%
    17:00 +11°C° 0 mm 3 mps 741 mmHg 88%
    18:00 +10°C° 0 mm 2 mps 741 mmHg 90%
    19:00 +11°C° 0 mm 1 mps 741 mmHg 92%
    20:00 +9°C° 0 mm 2 mps 741 mmHg 92%
    21:00 +9°C° 0 mm 2 mps 741 mmHg 93%
    22:00 +9°C° 0 mm 3 mps 741 mmHg 94%
    23:00 +10°C° 0 mm 3 mps 741 mmHg 89%

    Day after tomorrow, 14 November, Thursday

    Time Temperature Precipitation Wind Pressure Humidity
    00:00 +11°C° 0 mm 4 mps 740 mmHg 85%
    01:00 +10°C° 0 mm 5 mps 740 mmHg 80%
    02:00 +10°C° 0 mm 5 mps 740 mmHg 81%
    03:00 +10°C° 0 mm 5 mps 740 mmHg 81%
    04:00 +10°C° 0 mm 5 mps 741 mmHg 81%
    05:00 +10°C° 0 mm 4 mps 741 mmHg 85%
    06:00 +8°C° 0 mm 4 mps 742 mmHg 89%
    07:00 +8°C° 0 mm 4 mps 743 mmHg 93%
    08:00 +9°C° 0 mm 3 mps 744 mmHg 92%
    09:00 +9°C° 0 mm 2 mps 744 mmHg 90%
    10:00 +10°C° 0 mm 1 mps 745 mmHg 89%
    11:00 +10°C° 0.2 mm 1 mps 746 mmHg 90%
    12:00 +9°C° 0.2 mm 1 mps 746 mmHg 90%
    13:00 +8°C° 0.2 mm 0 mps 746 mmHg 91%
    14:00 +9°C° 0.4 mm 1 mps 746 mmHg 92%
    15:00 +9°C° 0.4 mm 1 mps 746 mmHg 93%
    16:00 +9°C° 0.4 mm 1 mps 746 mmHg 94%
    17:00 +9°C° 0.7 mm 1 mps 746 mmHg 94%
    18:00 +8°C° 0.7 mm 2 mps 747 mmHg 95%
    19:00 +8°C° 0.7 mm 2 mps 747 mmHg 95%
    20:00 +9°C° 0.3 mm 2 mps 747 mmHg 95%
    21:00 +9°C° 0.3 mm 2 mps 747 mmHg 96%
    22:00 +9°C° 0.3 mm 2 mps 747 mmHg 96%
    23:00 +9°C° 0 mm 2 mps 747 mmHg 95%

    15 November, Friday

    Time Temperature Precipitation Wind Pressure Humidity
    00:00 +9°C° 0 mm 2 mps 747 mmHg 94%
    01:00 +9°C° 0 mm 2 mps 747 mmHg 93%
    02:00 +9°C° 0 mm 2 mps 747 mmHg 92%
    03:00 +9°C° 0 mm 2 mps 747 mmHg 92%
    04:00 +9°C° 0 mm 2 mps 747 mmHg 91%
    05:00 +9°C° 0.1 mm 3 mps 747 mmHg 90%
    06:00 +9°C° 0.1 mm 3 mps 747 mmHg 90%
    07:00 +8°C° 0.1 mm 4 mps 747 mmHg 90%
    08:00 +10°C° 0 mm 4 mps 747 mmHg 88%
    09:00 +10°C° 0 mm 4 mps 747 mmHg 86%
    10:00 +10°C° 0 mm 4 mps 748 mmHg 85%
    11:00 +11°C° 0 mm 4 mps 748 mmHg 82%
    12:00 +11°C° 0 mm 4 mps 748 mmHg 80%
    13:00 +12°C° 0 mm 4 mps 748 mmHg 77%
    14:00 +11°C° 0 mm 4 mps 748 mmHg 80%
    15:00 +11°C° 0 mm 4 mps 748 mmHg 83%
    16:00 +10°C° 0 mm 4 mps 747 mmHg 86%
    17:00 +10°C° 0 mm 4 mps 748 mmHg 88%
    18:00 +10°C° 0 mm 4 mps 748 mmHg 89%
    19:00 +8°C° 0 mm 4 mps 748 mmHg 91%
    20:00 +8°C° 0 mm 4 mps 748 mmHg 91%
    21:00 +8°C° 0 mm 4 mps 748 mmHg 92%
    22:00 +8°C° 0 mm 4 mps 748 mmHg 92%
    23:00 +8°C° 0 mm 4 mps 748 mmHg 92%

    16 November, Saturday

    Time Temperature Precipitation Wind Pressure Humidity
    00:00 +8°C° 0 mm 4 mps 749 mmHg 92%
    01:00 +8°C° 0 mm 4 mps 749 mmHg 92%
    02:00 +8°C° 0 mm 4 mps 749 mmHg 92%
    03:00 +8°C° 0 mm 4 mps 749 mmHg 91%
    04:00 +8°C° 0 mm 4 mps 749 mmHg 91%
    05:00 +8°C° 0 mm 4 mps 749 mmHg 90%
    06:00 +8°C° 0 mm 4 mps 749 mmHg 90%
    07:00 +8°C° 0 mm 4 mps 749 mmHg 89%
    08:00 +10°C° 0 mm 4 mps 749 mmHg 86%
    09:00 +10°C° 0 mm 4 mps 749 mmHg 82%
    10:00 +11°C° 0 mm 4 mps 750 mmHg 79%
    11:00 +12°C° 0 mm 4 mps 750 mmHg 77%
    12:00 +12°C° 0 mm 4 mps 750 mmHg 75%
    13:00 +13°C° 0 mm 4 mps 750 mmHg 73%
    14:00 +12°C° 0 mm 3 mps 750 mmHg 76%
    15:00 +11°C° 0 mm 3 mps 750 mmHg 78%
    16:00 +11°C° 0 mm 3 mps 750 mmHg 81%
    17:00 +11°C° 0 mm 3 mps 751 mmHg 82%
    18:00 +10°C° 0 mm 3 mps 751 mmHg 83%
    19:00 +10°C° 0 mm 3 mps 751 mmHg 84%
    20:00 +10°C° 0 mm 3 mps 751 mmHg 86%
    21:00 +10°C° 0 mm 3 mps 752 mmHg 87%
    22:00 +10°C° 0 mm 3 mps 752 mmHg 89%
    23:00 +10°C° 0 mm 3 mps 752 mmHg 90%

    17 November, Sunday

    Time Temperature Precipitation Wind Pressure Humidity
    00:00 +9°C° 0 mm 3 mps 752 mmHg 91%
    01:00 +9°C° 0 mm 3 mps 752 mmHg 92%
    02:00 +9°C° 0 mm 3 mps 752 mmHg 93%
    03:00 +9°C° 0 mm 3 mps 752 mmHg 93%
    04:00 +8°C° 0 mm 3 mps 752 mmHg 94%
    05:00 +7°C° 0 mm 4 mps 752 mmHg 94%
    06:00 +7°C° 0 mm 4 mps 752 mmHg 94%
    07:00 +7°C° 0 mm 4 mps 751 mmHg 94%
    08:00 +7°C° 0 mm 4 mps 752 mmHg 92%
    09:00 +8°C° 0 mm 4 mps 752 mmHg 89%
    10:00 +8°C° 0 mm 5 mps 752 mmHg 87%
    11:00 +8°C° 0 mm 5 mps 751 mmHg 83%
    12:00 +9°C° 0 mm 5 mps 751 mmHg 79%
    13:00 +9°C° 0 mm 5 mps 751 mmHg 75%
    14:00 +9°C° 0 mm 5 mps 750 mmHg 76%
    15:00 +8°C° 0 mm 5 mps 750 mmHg 78%
    16:00 +7°C° 0 mm 5 mps 750 mmHg 79%
    17:00 +7°C° 0 mm 5 mps 750 mmHg 78%
    18:00 +6°C° 0 mm 5 mps 750 mmHg 77%
    19:00 +6°C° 0 mm 5 mps 750 mmHg 76%
    20:00 +6°C° 0 mm 5 mps 750 mmHg 76%
    21:00 +5°C° 0 mm 5 mps 750 mmHg 76%
    22:00 +5°C° 0 mm 4 mps 750 mmHg 76%
    23:00 +5°C° 0 mm 4 mps 749 mmHg 78%
    Show more